Flag Weather past 2 weeks in Hohhot, Inner Mongolia, China

Now
36 °F

Sunny.


Feels Like: 36 °F
Forecast: 20 / 42 °F
Wind: 1 mph from East

Location: Hohhot Airport

Current Time: Nov 24, 2014 at 5:36:25 PM

Latest Report: Nov 24, 2014 at 5:00 PM


Visibility: 10 mi

Pressure: 30.18 "Hg

Humidity: 38%

Dew point: 12 °F

Location of HohhotLocation

Historic Weather in Hohhot — Graph

°F

Hohhot temperature yesterday

Maximum temperature yesterday: 43 °F (at 12:00 PM)
Minimum temperature yesterday: 21 °F (at 11:00 PM)
Average temperature yesterday: 33 °F

Past Weeks' High & Low Weather Summary

 TemperatureHumidityPressure
High48 °F (Nov 9, 4:00 PM)100% (Nov 16, 8:00 AM)30.45 "Hg (Nov 16, 8:00 AM)
Low12 °F (Nov 13, 7:00 AM)20% (Nov 23, 4:00 PM)29.95 "Hg (Nov 20, 12:00 AM)
Average29 °F60%30.23 "Hg
* Reported Nov 9 4:00 PM — Nov 24 4:00 PM, Hohhot, Weather by CustomWeather, © 2014

Note: Actual official high and low records may vary slightly from our data, if they occured in-between our weather recording intervals... More about our weather records

Advertising

Hohhot weather history for previous 24 hours

 ConditionsComfort  
Time TempWeatherWind HumidityBarometerVisibility
4:00 PM
Nov 24
37 °FSunny.1 mph35%30.18 "Hg10 mi
3:00 PM37 °FSunny.1 mph35%30.21 "Hg10 mi
2:00 PM39 °FSunny.1 mph33%30.21 "Hg10 mi
1:00 PM36 °FSunny.1 mph38%30.21 "Hg10 mi
12:00 PM36 °FSunny.3 mph41%30.27 "Hg10 mi
11:00 AM32 °FPassing clouds.3 mph44%30.30 "HgN/A
10:00 AM28 °FSunny.3 mph51%30.30 "Hg10 mi
9:00 AM23 °FPassing clouds.3 mph63%30.30 "HgN/A
8:00 AM16 °FSunny.3 mph73%30.27 "Hg10 mi
7:00 AM14 °FClear.3 mph79%30.27 "Hg10 mi
6:00 AM16 °FClear.6 mph67%30.27 "Hg10 mi
5:00 AM16 °FClear.6 mph73%30.27 "Hg10 mi
4:00 AM16 °FClear.6 mph73%30.27 "Hg10 mi
3:00 AM18 °FClear.6 mph68%30.30 "Hg10 mi
2:00 AM19 °FClear.6 mph63%30.27 "Hg10 mi
1:00 AM21 °FClear.6 mph58%30.27 "Hg10 mi
12:00 AM19 °FClear.6 mph63%30.27 "Hg10 mi
11:00 PM
Nov 23
21 °FClear.6 mph58%30.27 "Hg10 mi
10:00 PM25 °FClear.8 mph50%30.27 "Hg10 mi
9:00 PM28 °FClear.8 mph47%30.27 "Hg10 mi
8:00 PM30 °FClear.8 mph43%30.27 "Hg10 mi
7:00 PM27 °FClear.8 mph46%30.24 "Hg10 mi
6:00 PM34 °FClear.1 mph27%30.24 "Hg10 mi
5:00 PM37 °FSunny.6 mph23%30.21 "Hg10 mi
Weather by CustomWeather, © 2014

See weather overviewHow to use our weather pages